Nagpur Sonegaon, India

1:01 PM IST on January 21, 2018 (GMT +0530)
Nagpur

Weather History for VANP - September, 2012

Change the Weather History Date:

Sunday, September 30, 2012

  Actual Average Record
Temperature  
Mean Temperature 84 °F -  
Max Temperature 92 °F 91 °F - ()
Min Temperature 76 °F 68 °F - ()
Cooling Degree Days 19    
Growing Degree Days 34 (Base 50)    
Moisture  
Dew Point 75 °F    
Average Humidity 73    
Maximum Humidity 89    
Minimum Humidity 53    
Precipitation  
Precipitation 0.00 in 0.10 in - ()
Sea Level Pressure  
Sea Level Pressure 29.79 in    
Wind  
Wind Speed 3 mph ()    
Max Wind Speed 7 mph    
Max Gust Speed -    
Visibility 3.2 miles    
Events      
T = Trace of Precipitation, MM = Missing Value Source: Averaged Metar Reports

Daily Weather History Graph

Daily Weather History Graph

Search for Another Location

Airport or City:

Trip Planner

Search our weather history database for the weather conditions in past years. The results will help you decide how hot, cold, wet, or windy it might be!

Date:

Astronomy

Sep. 30, 2012 Rise Set
Actual Time 6:04 AM IST 6:02 PM IST
Civil Twilight 5:42 AM IST 6:24 PM IST
Nautical Twilight 5:16 AM IST 6:50 PM IST
Astronomical Twilight 4:51 AM IST 7:16 PM IST
Moon 6:01 PM IST (9/30) 6:00 AM IST (9/30)
Length of Visible Light 12h 42m
Length of Day
11h 57m
Full, 100% of the Moon is Illuminated
Sep 30
Full
Oct 8
Last Quarter
Oct 15
New
Oct 22
First Quarter
Oct 30
Full

Hourly Weather History & Observations

Time (IST) Temp. Heat Index Dew Point Humidity Pressure Visibility Wind Dir Wind Speed Gust Speed Precip Events Conditions
12:10 AM 78.8 °F - 71.6 °F 78% 29.83 in 3.7 mi North - - N/A   Partly Cloudy
1:10 AM 78.8 °F - 73.4 °F 83% 29.80 in 3.7 mi North 2.3 mph - N/A   Partly Cloudy
2:10 AM 77.0 °F - 71.6 °F 83% 29.80 in 3.7 mi North 3.5 mph - N/A   Partly Cloudy
2:30 AM 79 °F - 74 °F 81% 29.75 in 2 mi NW 2.3 mph - -   Scattered Clouds
3:10 AM 78.8 °F - 73.4 °F 83% 29.80 in 3.7 mi NW 3.5 mph - N/A   Partly Cloudy
4:10 AM 78.8 °F - 73.4 °F 83% 29.80 in 3.7 mi NW 3.5 mph - N/A   Scattered Clouds
5:10 AM 77.0 °F - 73.4 °F 89% 29.80 in 3.7 mi WNW 3.5 mph - N/A   Scattered Clouds
5:30 AM 76 °F - 72 °F 84% 29.78 in 2 mi NNE 2.3 mph - -   Scattered Clouds
6:10 AM 77.0 °F - 71.6 °F 83% 29.83 in 3.7 mi NNE 2.3 mph - N/A   Partly Cloudy
7:10 AM 80.6 °F 85.4 °F 73.4 °F 79% 29.83 in 3.7 mi NNE 2.3 mph - N/A   Partly Cloudy
8:10 AM 82.4 °F 89.5 °F 75.2 °F 79% 29.86 in 3.7 mi NE 2.3 mph - N/A   Scattered Clouds
9:10 AM 87.8 °F 99.7 °F 77.0 °F 70% 29.83 in 3.7 mi ENE 5.8 mph - N/A   Scattered Clouds
10:10 AM 91.4 °F 107.2 °F 78.8 °F 66% 29.86 in 3.7 mi East 4.6 mph - N/A   Scattered Clouds
11:10 AM 93.2 °F 113.6 °F 80.6 °F 67% 29.83 in 3.7 mi East 6.9 mph - N/A   Partly Cloudy
11:30 AM 89 °F - 77 °F 60% 29.78 in 2 mi NE 5.8 mph - -   Partly Cloudy
12:10 PM 93.2 °F 110.2 °F 78.8 °F 63% 29.80 in 3.7 mi East 5.8 mph - N/A   Scattered Clouds
1:10 PM 93.2 °F 113.6 °F 80.6 °F 67% 29.80 in 3.7 mi ENE 5.8 mph - N/A   Scattered Clouds
2:10 PM 87.8 °F 99.7 °F 77.0 °F 70% 29.83 in 3.7 mi ENE 5.8 mph - N/A   Scattered Clouds
2:30 PM 90 °F - 75 °F 53% 29.69 in 2 mi ENE 5.8 mph - -   Partly Cloudy
3:10 PM 93.2 °F 110.2 °F 78.8 °F 63% 29.74 in 3.7 mi East 4.6 mph - N/A   Scattered Clouds
5:10 PM 91.4 °F 107.2 °F 78.8 °F 66% 29.71 in 3.1 mi ENE 3.5 mph - N/A   Haze
5:30 PM 88 °F - 75 °F 57% 29.66 in 2 mi NE 4.6 mph - -   Haze
6:10 PM 87.8 °F 97.6 °F 75.2 °F 66% 29.74 in 3.1 mi ENE 2.3 mph - N/A   Haze
7:10 PM 86.0 °F 95.1 °F 75.2 °F 70% 29.77 in 3.1 mi ENE 5.8 mph - N/A   Haze
8:10 PM 86.0 °F 93.4 °F 73.4 °F 66% 29.80 in 3.1 mi NNE 5.8 mph - N/A   Haze
8:30 PM 82 °F - 74 °F 70% 29.73 in 2 mi NNE 5.8 mph - -   Haze
10:10 PM 82.4 °F 88.2 °F 73.4 °F 74% 29.83 in 3.1 mi ENE 3.5 mph - N/A   Haze
11:30 PM 80 °F - 74 °F 78% 29.77 in 2 mi NNE 3.5 mph - -   Haze